Location: Widewater Village at Stafford
(38.4893°N, 77.3783°W)
Time: 12:09:02
(UTC+00:00)

BlueWalker 3 - Pass Details

Date: 09 December 2022
Orbit: 499 x 517 km, 53.2° (Epoch: 29 January)

Event Time Altitude Azimuth Distance (km) Brightness Sun altitude
Rises 23:26:45 0° 315° (NW) 2,624 6.0 -18.6°
Reaches altitude 10° 23:29:00 10° 320° (NW) 1,732 5.0 -19.1°
Enters shadow 23:32:45 52° 31° (NNE) 636 2.1 -19.8°
